FW3806 Weather Reports


Display with metric or nautical units.
time (UTC)temp
F
wind
direction
speed
MPH
gust
MPH
rain 1hr
in
rain 24hr
in
rain mn
in
humidity
%
barometer
mb
20260506004522 73 99 2.0 6.0 0.00 0.00 0.00 20 1006.6
20260506003021 74 134 4.0 8.0 0.00 0.00 0.00 20 1006.6
20260506001520 74 124 3.0 6.0 0.00 0.00 0.00 19 1006.6
20260506000019 73 99 0.0 12.0 0.00 0.00 0.00 20 1006.5
20260505234518 74 122 0.0 3.0 0.00 0.00 0.00 20 1006.5
20260505233025 73 105 0.0 1.0 0.00 0.00 0.00 21 1006.5
20260505231516 73 329 5.0 10.0 0.00 0.00 0.00 20 1006.5
20260505230123 72 143 1.0 10.0 0.00 0.00 0.00 20 1006.8
20260505224514 73 70 0.0 11.0 0.00 0.00 0.00 20 1007.1
20260505223013 73 58 4.0 14.0 0.00 0.00 0.00 20 1007.2
20260505221512 73 75 1.0 11.0 0.00 0.00 0.00 20 1007.3
20260505220028 73 101 7.0 12.0 0.00 0.00 0.00 20 1007.6
20260505214515 72 110 3.0 10.0 0.00 0.00 0.00 22 1007.7
20260505213010 72 22 0.0 12.0 0.00 0.00 0.00 21 1007.8
20260505211511 72 180 1.0 14.0 0.00 0.00 0.00 22 1008.0
20260505210007 72 241 0.0 8.0 0.00 0.00 0.00 22 1008.2
20260505204507 72 210 7.0 10.0 0.00 0.00 0.00 23 1008.3
20260505203002 71 77 7.0 14.0 0.00 0.00 0.00 24 1008.3
20260505201500 70 160 5.0 13.0 0.00 0.00 0.00 25 1008.3
20260505200110 69 75 8.0 12.0 0.00 0.00 0.00 25 1008.4
20260505194600 70 101 6.0 14.0 0.00 0.00 0.00 26 1008.5
20260505193104 68 90 3.0 13.0 0.00 0.00 0.00 27 1008.8
20260505191604 69 86 4.0 13.0 0.00 0.00 0.00 27 1008.8
20260505190055 70 180 1.0 9.0 0.00 0.00 0.00 27 1008.7
20260505184551 68 112 2.0 9.0 0.00 0.00 0.00 27 1008.9
20260505183048 69 141 3.0 9.0 0.00 0.00 0.00 29 1008.9
20260505181554 67 198 1.0 11.0 0.00 0.00 0.00 30 1008.8
20260505180043 68 125 1.0 7.0 0.00 0.00 0.00 30 1008.8
20260505174541 65 121 3.0 11.0 0.00 0.00 0.00 34 1008.9
20260505173040 65 132 1.0 10.0 0.00 0.00 0.00 34 1009.0
20260505171537 65 117 3.0 8.0 0.00 0.00 0.00 34 1009.0
20260505170037 65 127 0.0 7.0 0.00 0.00 0.00 35 1009.0
20260505164534 63 131 2.0 9.0 0.00 0.00 0.00 37 1009.1
20260505163033 62 127 4.0 10.0 0.00 0.00 0.00 39 1009.1
20260505161541 62 123 1.0 8.0 0.00 0.00 0.00 39 1009.1
20260505153031 60 113 0.0 6.0 0.00 0.00 0.00 42 1009.1
20260505151529 60 131 1.0 8.0 0.00 0.00 0.00 42 1009.1
20260505124517 56 67 3.0 8.0 0.00 0.00 0.00 47 1007.9
20260505123014 56 75 4.0 9.0 0.00 0.00 0.00 47 1007.9
20260505121527 56 77 4.0 9.0 0.00 0.00 0.00 46 1007.8
20260505120011 56 66 5.0 9.0 0.00 0.00 0.00 46 1007.8
20260505114509 56 70 4.0 8.0 0.00 0.00 0.00 46 1007.8
20260505113007 57 68 3.0 7.0 0.00 0.00 0.00 45 1007.7
20260505111504 57 103 4.0 9.0 0.00 0.00 0.00 44 1007.6
20260505101553 58 64 3.0 9.0 0.00 0.00 0.00 42 1007.4
20260505100049 58 82 5.0 10.0 0.00 0.00 0.00 41 1007.1
20260505094552 59 108 4.0 8.0 0.00 0.00 0.00 40 1007.3
20260505093053 59 70 6.0 11.0 0.00 0.00 0.00 40 1007.3
20260505091543 59 84 3.0 6.0 0.00 0.00 0.00 39 1007.2
20260505090045 60 84 4.0 8.0 0.00 0.00 0.00 38 1007.2
20260505084549 61 84 0.0 9.0 0.00 0.00 0.00 36 1007.3
20260505083048 61 112 7.0 14.0 0.00 0.00 0.00 36 1007.0
20260505081533 61 104 4.0 8.0 0.00 0.00 0.00 36 1007.0
20260505080041 61 110 3.0 8.0 0.00 0.00 0.00 35 1007.1
20260505074528 62 101 6.0 10.0 0.00 0.00 0.00 35 1007.1
20260505073033 62 103 4.0 8.0 0.00 0.00 0.00 33 1007.1
20260505071522 63 111 5.0 10.0 0.00 0.00 0.00 32 1006.9
20260505070019 63 151 5.0 11.0 0.00 0.00 0.00 32 1006.9
20260505064520 64 120 5.0 10.0 0.00 0.00 0.00 31 1006.9
20260505063018 64 169 6.0 11.0 0.00 0.00 0.00 31 1006.7
20260505061615 64 139 4.0 12.0 0.00 0.00 0.00 30 1006.8
20260505060014 65 158 5.0 8.0 0.00 0.00 0.00 29 1006.6
20260505054515 65 124 0.0 9.0 0.00 0.00 0.00 28 1006.5
20260505053014 66 161 4.0 11.0 0.00 0.00 0.00 27 1006.6
20260505051513 66 195 5.0 10.0 0.00 0.00 0.00 28 1006.5
20260505041510 67 143 6.0 18.0 0.00 0.00 0.00 25 1005.8
20260505040010 68 162 8.0 18.0 0.00 0.00 0.00 23 1005.6
20260505034510 68 126 7.0 14.0 0.00 0.00 0.00 22 1005.2
20260505033009 69 159 9.0 17.0 0.00 0.00 0.00 21 1005.0
20260505031507 69 121 8.0 17.0 0.00 0.00 0.00 20 1004.8
20260505030008 69 132 6.0 16.0 0.00 0.00 0.00 19 1004.5
20260505024506 70 214 13.0 20.0 0.00 0.00 0.00 19 1004.3
20260505023007 70 205 8.0 16.0 0.00 0.00 0.00 18 1004.2
20260505021502 71 196 7.0 16.0 0.00 0.00 0.00 17 1004.3
20260505020104 72 171 8.0 17.0 0.00 0.00 0.00 17 1004.1
20260505014607 73 165 2.0 14.0 0.00 0.00 0.00 17 1004.1
20260505013100 74 198 8.0 17.0 0.00 0.00 0.00 17 1004.0
20260505011600 74 205 7.0 20.0 0.00 0.00 0.00 18 1003.9
20260505010058 74 178 9.0 16.0 0.00 0.00 0.00 17 1004.1